User: anonymous   Login
Location: Oshawa
(43.9000°N, 78.8670°W)
Time: 18:54:57
(UTC-04:00)
Language:

SPOT 5 - Orbit

View from above orbital plane
View from above orbital plane
View from above satellite
View from above satellite

Ground track
Ground track

The orbit data is extracted from the following two-line orbital elements,

1 27421U 02021A   18196.30757019  .00000049  00000-0  22448-4 0  9995
2 27421  98.3545 263.8701 0134803 203.8032 155.6893 14.51939695842717
Epoch (UTC): 15 July 2018 07:22:54
Eccentricity: 0.0134803
inclination: 98.3545°
perigee height: 623 km
apogee height: 815 km
right ascension of ascending node: 263.8701°
argument of perigee: 203.8032°
revolutions per day: 14.51939695
mean anomaly at epoch: 155.6893°
orbit number at epoch: 84271

The dashed part of the orbit path shows where the satellite is in the earth's shadow,  

DLR